タットル-ジャコビニ-クレサーク彗星

41P/Tuttle-Giacobini-Kresak (2001)

English version
Home page
Updated on July 9, 2001

---------------------------------------------------------------------

・ プロフィール

・ 軌道要素

Epoch 2001 Jan. 11.0 TT = JDT 2451920.5  
T 2001 Jan.  6.96638 TT                                 Muraoka 
q   1.0522334            (2000.0)            P               Q
n   0.18164116     Peri.   62.16629     -0.91145869     +0.39888584
a   3.0878761      Node   141.10553     -0.41071733     -0.86829937
e   0.6592372      Incl.    9.22551     -0.02354411     -0.29486655
P   5.43
From 59 observations 1989-2000, mean residual 0".90.  Nongravitational
   parameters A1 = +2.73 +/- 0.18, A2 = +0.0533 +/- 0.0005.

・ 星図

・ 光度変化

        m1 = 13.5 + 5 logΔ +  18.0 log r  [   ,-50]  (              〜2000年11月17日)
        m1 = -4.2 + 5 logΔ + 200   log r  [-50,-39]  (2000年11月17日〜2000年11月28日)
        m1 = 14.5 + 5 logΔ -  70   log r  [-39,-23]  (2000年11月28日〜2000年12月14日)
        m1 = 13.0 + 5 logΔ - 155   log r  [-23,  0]  (2000年12月14日〜2001年 1月 6日)
        m1 =  9.0 + 5 logΔ +  40.0 log r  [  0,   ]  (2001年 1月 6日〜              )

---------------------------------------------------------------------

軌道要素は村岡健治氏の計算によるものです。
星図は StellaNavigator Ver.2.0 for Windows (アストロアーツ 編著 / アスキー出版局刊) で作成したものです。
光度グラフはComet for Windowsで作成したものです。

---------------------------------------------------------------------

Copyright(C) Seiichi Yoshida (comet@aerith.net). All rights reserved.